Weather History for Nome, AK

Change the Weather History Date:

Tuesday, January 14, 2014

  Actual Average Record
Temperature  
Mean Temperature -6 °F -  
Max Temperature 0 °F 13 °F 39 °F (1997)
Min Temperature -12 °F -3 °F -35 °F (1947)
Degree Days  
Heating Degree Days 71 60  
Month to date heating degree days 700 833  
Since 1 July heating degree days 6062 6651  
Cooling Degree Days 0    
Month to date cooling degree days 0  
Year to date cooling degree days 0  
Moisture  
Dew Point -14 °F    
Average Humidity 0    
Maximum Humidity 0    
Minimum Humidity 0    
Precipitation  
Precipitation 0.00 in 0.03 in 0.37 in (1954)
Month to date precipitation 0.28 0.45  
Year to date precipitation 0.28 0.45  
Snow  
Snow 0.00 in 0.40 in 5.80 in (1954)
Month to date snowfall 3.9 6.1  
Since 1 July snowfall 36.9 37.9  
Snow Depth 17.00 in    
Sea Level Pressure  
Sea Level Pressure 29.35 in    
Wind  
Wind Speed 4 mph (North)    
Max Wind Speed 20 mph    
Max Gust Speed 24 mph    
Visibility 10 miles    
Events      
T = Trace of Precipitation, MM = Missing Value Source: NWS Daily Summary

Daily Weather History Graph

Daily Weather History Graph

Search for Another Location

Airport:

Trip Planner

Search our weather history database for the weather conditions in past years. The results will help you decide how hot, cold, wet, or windy it might be!

Date:

Astronomy

Jan. 14, 2014 Rise Set
Actual Time 11:35 AM AKST 4:47 PM AKST
Civil Twilight 10:25 AM AKST 5:57 PM AKST
Nautical Twilight 9:19 AM AKST 7:02 PM AKST
Astronomical Twilight 8:21 AM AKST 8:01 PM AKST
Moon 4:22 PM AKST (1/14) 10:02 AM AKST (1/14)
Length of Visible Light 7h 31m
Length of Day
5h 12m
Waxing Gibbous, 98% of the Moon is Illuminated
Jan 14
Waxing Gibbous
Jan 15
Full
Jan 23
Last Quarter
Jan 30
New
Feb 6
First Quarter

Hourly Weather History & Observations

Time (AKST) Temp. Windchill Dew Point Humidity Pressure Visibility Wind Dir Wind Speed Gust Speed Precip Events Conditions
12:53 AM -0.9 °F -11.0 °F -11.9 °F 60% 29.30 in 10.0 mi North 4.6 mph - N/A   Scattered Clouds
1:53 AM -2.0 °F -15.4 °F -11.9 °F 63% 29.29 in 10.0 mi North 6.9 mph - N/A   Scattered Clouds
2:53 AM -0.9 °F -19.1 °F -11.9 °F 60% 29.27 in 10.0 mi North 12.7 mph - N/A   Scattered Clouds
3:53 AM -2.0 °F -16.6 °F -11.9 °F 63% 29.28 in 10.0 mi North 8.1 mph - N/A   Scattered Clouds
4:53 AM -2.0 °F - -11.9 °F 63% 29.27 in 10.0 mi Calm Calm - N/A   Scattered Clouds
5:53 AM -7.1 °F -15.9 °F -15.0 °F 68% 29.26 in 10.0 mi NNW 3.5 mph - N/A   Scattered Clouds
6:53 AM -7.1 °F - -14.1 °F 72% 29.26 in 10.0 mi Calm Calm - N/A   Mostly Cloudy
7:53 AM -9.0 °F - -15.0 °F 75% 29.27 in 10.0 mi Calm Calm - N/A   Mostly Cloudy
8:53 AM -9.0 °F -18.2 °F -16.1 °F 71% 29.27 in 10.0 mi NE 3.5 mph - N/A   Scattered Clouds
9:53 AM -5.1 °F -13.6 °F -11.9 °F 72% 29.26 in 9.0 mi NW 3.5 mph - N/A   Mostly Cloudy
10:53 AM -4.0 °F - -11.0 °F 72% 29.27 in 10.0 mi Calm Calm - N/A   Overcast
11:53 AM -4.0 °F - -11.0 °F 72% 29.29 in 10.0 mi Calm Calm - N/A   Mostly Cloudy
12:53 PM -5.1 °F - -11.9 °F 72% 29.29 in 10.0 mi Calm Calm - N/A   Scattered Clouds
1:53 PM -4.0 °F -14.6 °F -11.9 °F 69% 29.32 in 10.0 mi North 4.6 mph - N/A   Scattered Clouds
2:53 PM -6.0 °F -14.7 °F -13.0 °F 72% 29.34 in 10.0 mi NNW 3.5 mph - N/A   Scattered Clouds
3:53 PM -8.0 °F - -14.1 °F 75% 29.36 in 10.0 mi Calm Calm - N/A   Scattered Clouds
4:53 PM -7.1 °F - -15.0 °F 68% 29.39 in 10.0 mi Calm Calm - N/A   Scattered Clouds
5:53 PM -9.0 °F -20.4 °F -15.0 °F 75% 29.40 in 10.0 mi North 4.6 mph - N/A   Clear
6:53 PM -8.0 °F -22.5 °F -17.0 °F 65% 29.44 in 10.0 mi North 6.9 mph - N/A   Clear
7:53 PM -11.0 °F - -18.0 °F 71% 29.47 in 10.0 mi Calm Calm - N/A   Clear
8:53 PM -11.0 °F -20.4 °F -18.0 °F 71% 29.50 in 10.0 mi North 3.5 mph - N/A   Clear
9:53 PM -8.0 °F -26.1 °F -16.1 °F 68% 29.54 in 10.0 mi North 10.4 mph - N/A   Clear
10:53 PM -7.1 °F -25.0 °F -15.0 °F 68% 29.57 in 10.0 mi North 10.4 mph - N/A   Clear
11:53 PM -9.0 °F -23.8 °F -15.0 °F 75% 29.60 in 10.0 mi North 6.9 mph - N/A   Clear